Location: Monfort
(47.1967°N, 0.2115°W)
Time: 04:32:28
(UTC+00:00)

COSMO-SKYMED 1 - Pass Details

Date: 24 October 2020
Orbit: 621 x 623 km, 97.9° (Epoch: 01 December)

Event Time Altitude Azimuth Distance (km) Brightness Sun altitude
Rises 18:43:40 0° 8° (N) 2,917 6.0 -18.8°
Reaches altitude 10° 18:45:56 10° 2° (N) 2,005 5.2 -19.2°
Maximum altitude 18:50:06 46° 290° (WNW) 844 3.6 -19.9°
Drops below altitude 10° 18:54:14 10° 217° (SW) 1,989 5.6 -20.6°
Sets 18:56:28 0° 211° (SSW) 2,890 6.4 -21.0°
